[[{"header":{"parameterUnit":"m.s-1","parameterCategory":1,"la1":30.2991,"la2":30.254,"lo1":-89.0895,"lo2":-89.0444,"dy":0.0017,"dx":0.0017,"nx":28,"ny":28,"refTime":"2025-12-11T09:00:00:Z","depth":0,"parameterNumber":2,"parameterNumberName":"U-component_of_WINDS"},"data":[0,0,0,0,0,0,0,0,0,0,0,0,0,0,0,0,0,0,0,0,0,0,0,0,0,0,0,0,0,0,0,0,0,0,0,0,0,0,0,0,0,0,0,0,0,0,0,0,0,0,0,0,0,0,0,0,0,0,2.0205,2.0206,0,2.0306,2.0308,2.0309,2.0291,2.0289,2.0287,2.0285,2.0391,2.0396,2.04,0,0,0,0,0,0,0,0,0,0,0,0,0,1.9997,2.0001,2.0204,2.0206,2.0207,2.0306,2.0308,2.0309,2.0291,2.0289,2.0286,2.0284,2.039,2.0395,2.0401,0,0,0,0,0,0,0,0,0,0,0,0,0,2.0092,2.0002,2.0204,2.021,2.0211,2.0306,2.0308,2.0309,2.0291,2.0289,2.0286,2.0283,2.0388,2.0395,2.0401,2.0498,0,0,2.0422,2.0425,0,0,0,0,0,0,0,0,2.0086,2.0099,2.0208,2.021,2.0211,2.0283,2.0273,2.0373,2.0292,2.0261,2.0285,2.0282,2.0358,2.0367,2.0392,2.0503,2.0507,2.0423,2.0427,2.043,2.0432,0,0,0,0,0,0,0,2.008,2.0095,2.0245,2.0209,2.0212,2.0208,2.0219,2.0292,2.0323,2.0263,2.0262,2.0275,2.0358,2.0385,2.0394,2.0509,2.0423,2.0429,2.0433,2.0435,2.0706,2.0708,0,0,0,0,0,0,2.0071,2.009,2.0242,2.0248,2.0141,2.0214,2.0226,2.0263,2.0322,2.0329,2.0277,2.0273,2.0375,2.0386,2.0398,2.0516,2.043,2.0436,2.044,2.0702,2.0706,2.071,0,0,0,0,0,0,2.0067,2.0085,2.0237,2.0169,2.0188,2.0221,2.0262,2.0266,2.0293,2.0333,2.0338,2.0299,2.0374,2.0388,2.0473,2.0519,2.0439,2.0445,2.0699,2.0704,2.0708,2.0751,0,0,0,0,0,0,2.0061,2.0083,2.0119,2.0169,2.0191,2.031,2.0265,2.027,2.0305,2.0301,2.0355,2.0361,2.0373,2.0463,2.048,2.0527,2.0451,2.0695,2.0701,2.0706,2.0746,2.0757,2.0766,0,0,0,0,0,2.0054,2.0128,2.0121,2.014,2.0237,2.0313,2.0326,2.0337,2.0309,2.0346,2.0371,2.0359,2.0511,2.0472,2.0491,2.0541,2.0692,2.0699,2.0706,2.0742,2.0755,2.0766,0,0,0,0,0,0,2.0082,2.0134,2.0128,2.022,2.0262,2.031,2.0357,2.035,2.0402,2.0397,2.0409,2.0421,2.0508,2.0533,2.0488,2.0638,2.0598,2.0609,2.0618,2.0632,2.0641,2.0634,2.0456,0,0,0,0,0,2.0099,2.0156,2.0198,2.0276,2.0297,2.0324,2.0357,2.0362,2.0407,2.0425,2.0456,2.05,2.0558,2.0596,2.0651,2.0749,2.0762,2.0793,2.0803,2.0811,2.0821,2.0877,2.0892,2.0733,2.0733,2.0732,0,0,2.0135,2.0171,2.0206,2.0283,2.0316,2.0375,2.0339,2.0403,2.0447,2.0434,2.0517,2.0542,2.0592,2.0684,2.0727,2.0708,2.0868,2.082,2.0827,2.0832,2.0886,2.0901,2.0914,2.0737,2.0736,2.0736,0,0,2.0231,2.0263,2.0332,2.0366,2.0417,2.0434,2.0451,2.05,2.0516,2.0598,2.0591,2.0644,2.0743,2.078,2.0812,2.0924,2.0915,2.0941,2.0995,2.1049,2.1061,2.1073,2.1114,2.1128,2.0951,2.0951,2.0951,0,2.027,2.0358,2.0368,2.0433,2.0468,2.0459,2.053,2.0563,2.063,2.0654,2.0632,2.0758,2.0791,2.0892,2.092,2.0945,2.0966,2.0935,2.1058,2.107,2.1081,2.112,2.1136,2.0954,2.0953,2.0953,2.0953,0,2.0403,2.0465,2.0515,2.0579,2.062,2.0687,2.0709,2.0749,2.0751,2.0771,2.0857,2.0896,2.096,2.0985,2.0987,2.1088,2.1074,2.1055,2.1015,2.1098,2.1136,2.1151,2.0958,2.0957,2.0956,2.0955,0,0,2.052,2.059,2.0608,2.0638,2.0694,2.0743,2.0811,2.0873,2.0908,2.0955,2.1013,2.1098,2.1081,2.1117,2.1124,2.1171,2.126,2.1147,2.1148,2.1167,2.1375,2.1389,2.1406,2.1254,2.1257,2.1259,2.1371,0,2.0622,2.0741,2.0753,2.0861,2.0919,2.0912,2.0971,2.1013,2.1034,2.1087,2.1111,2.1171,2.1143,2.1165,2.1212,2.1239,2.1301,2.1231,2.131,2.1313,2.1298,2.1426,2.1441,2.1544,2.1385,2.1388,2.139,0,2.0757,2.0807,2.0921,2.097,2.0995,2.1049,2.1108,2.1158,2.1206,2.1218,2.1259,2.126,2.1332,2.1289,2.1389,2.1341,2.1374,2.1392,2.1397,2.1405,2.1356,2.1439,2.1577,2.1593,2.1412,2.1411,2.1409,0,2.0832,2.0929,2.1009,2.1035,2.1095,2.1133,2.1159,2.1204,2.1242,2.1294,2.1319,2.1378,2.1411,2.1458,2.1476,2.1443,2.1576,2.1534,2.1589,2.1589,2.1618,2.1616,2.1765,2.1638,2.1637,2.1637,2.1637,0,2.0945,2.1015,2.1044,2.1094,2.1173,2.1186,2.1264,2.1289,2.133,2.1385,2.1383,2.1435,2.1455,2.1511,2.1526,2.1607,2.1622,2.1635,2.1638,2.1636,2.1634,2.1658,2.1652,2.1641,2.164,2.164,2.1639,0,2.1042,2.1064,2.1152,2.1202,2.1216,2.1272,2.1315,2.1364,2.1385,2.1455,2.1473,2.1505,2.1571,2.1594,2.1673,2.1683,2.1779,2.1775,2.1762,2.1763,2.1818,2.1813,2.1988,2.2012,2.1868,2.1869,2.187,0,2.1114,2.1167,2.1223,2.126,2.1288,2.1347,2.1386,2.1402,2.1442,2.1502,2.1544,2.1609,2.1662,2.1769,2.18,2.1862,2.1861,2.1918,2.187,2.1866,2.1863,2.186,2.1866,2.1927,2.1928,2.193,2.1931,0,2.1238,2.1247,2.1302,2.1361,2.1407,2.1455,2.1501,2.1531,2.1555,2.16,2.1668,2.1709,2.1791,2.1857,2.192,2.1949,2.1945,2.1945,2.1962,2.196,2.1951,2.1958,2.1788,2.1941,2.194,2.194,2.1939,2.1939,2.1326,2.1374,2.1421,2.1483,2.1519,2.1563,2.1611,2.1638,2.1695,2.1763,2.1769,2.1842,2.1891,2.1975,2.2007,2.2065,2.205,2.2073,2.2079,2.2085,2.2089,2.1941,2.2077,2.2077,2.2076,2.2076,2.2076,0,2.1451,2.1481,2.1538,2.1603,2.1652,2.1643,2.1694,2.1736,2.18,2.1846,2.1898,2.1977,2.2041,2.2078,2.2143,2.2182,2.2182,2.2199,2.2197,2.2204,2.2099,2.2079,2.2198,2.2198,2.2198,2.2198,2.2198,2.2198,2.1522,2.1604,2.1618,2.1718,2.1748,2.182,2.185,2.1891,2.1927,2.2015,2.2068,2.2091,2.2134,2.2202,2.2261,2.227,2.2295,2.2314,2.2322,2.2223,2.2211,2.2199,2.218,2.2318,2.2319,2.2421,2.2422,2.2423]},{"header":{"parameterUnit":"m.s-1","parameterCategory":1,"la1":30.2991,"la2":30.254,"lo1":-89.0895,"lo2":-89.0444,"dy":0.0017,"dx":0.0017,"nx":28,"ny":28,"refTime":"2025-12-11T09:00:00:Z","depth":0,"parameterNumber":3,"parameterNumberName":"V-component_of_WINDS"},"data":[0,0,0,0,0,0,0,0,0,0,0,0,0,0,0,0,0,0,0,0,0,0,0,0,0,0,0,0,0,0,0,0,0,0,0,0,0,0,0,0,0,0,0,0,0,0,0,0,0,0,0,0,0,0,0,0,0,0,-2.4045,-2.4045,0,-2.4019,-2.4018,-2.4018,-2.4013,-2.4014,-2.4014,-2.4014,-2.3983,-2.3982,-2.3981,0,0,0,0,0,0,0,0,0,0,0,0,0,-2.409,-2.4089,-2.4045,-2.4045,-2.4045,-2.4019,-2.4018,-2.4018,-2.4013,-2.4014,-2.4014,-2.4014,-2.3983,-2.3982,-2.3981,0,0,0,0,0,0,0,0,0,0,0,0,0,-2.4068,-2.4089,-2.4045,-2.4039,-2.4039,-2.4019,-2.4018,-2.4018,-2.4013,-2.4014,-2.4014,-2.4014,-2.3983,-2.3982,-2.398,-2.3963,0,0,-2.3976,-2.3975,0,0,0,0,0,0,0,0,-2.4069,-2.4066,-2.4041,-2.404,-2.4039,-2.402,-2.4023,-2.3999,-2.4013,-2.4023,-2.4014,-2.4015,-2.3994,-2.3992,-2.3986,-2.3962,-2.3961,-2.3975,-2.3974,-2.3974,-2.3973,0,0,0,0,0,0,0,-2.407,-2.4067,-2.4035,-2.404,-2.4039,-2.4037,-2.4034,-2.4018,-2.4007,-2.4022,-2.4022,-2.4019,-2.3994,-2.3988,-2.3985,-2.396,-2.3975,-2.3974,-2.3973,-2.3972,-2.3922,-2.3922,0,0,0,0,0,0,-2.4073,-2.4068,-2.4035,-2.4034,-2.4055,-2.4036,-2.4033,-2.4025,-2.4007,-2.4005,-2.4018,-2.4019,-2.399,-2.3987,-2.3984,-2.3964,-2.3974,-2.3972,-2.3971,-2.3923,-2.3922,-2.3922,0,0,0,0,0,0,-2.4074,-2.4071,-2.4036,-2.4051,-2.4047,-2.4035,-2.4027,-2.4025,-2.4018,-2.4004,-2.4002,-2.4014,-2.399,-2.3986,-2.3969,-2.3963,-2.3972,-2.397,-2.3923,-2.3923,-2.3922,-2.3924,0,0,0,0,0,0,-2.4076,-2.4071,-2.4065,-2.4051,-2.4046,-2.4023,-2.4026,-2.4024,-2.4016,-2.4016,-2.4,-2.3997,-2.399,-2.3972,-2.3968,-2.3961,-2.3969,-2.3924,-2.3923,-2.3922,-2.3924,-2.3923,-2.3922,0,0,0,0,0,-2.4077,-2.4065,-2.4064,-2.406,-2.4038,-2.4022,-2.4019,-2.4013,-2.4016,-2.4009,-2.4001,-2.3998,-2.3965,-2.397,-2.3965,-2.3958,-2.3924,-2.3923,-2.3922,-2.3924,-2.3923,-2.3922,0,0,0,0,0,0,-2.4076,-2.4063,-2.4062,-2.4045,-2.4035,-2.4022,-2.4013,-2.4011,-2.3999,-2.4,-2.3991,-2.3987,-2.3971,-2.3963,-2.3969,-2.3942,-2.3944,-2.3943,-2.3947,-2.3946,-2.3946,-2.3948,-2.3968,0,0,0,0,0,-2.4074,-2.4064,-2.4052,-2.4038,-2.4033,-2.4024,-2.4017,-2.4013,-2.4002,-2.3997,-2.3987,-2.3975,-2.3963,-2.3954,-2.3941,-2.3923,-2.392,-2.3916,-2.3915,-2.3915,-2.3913,-2.3904,-2.3903,-2.3919,-2.3919,-2.3919,0,0,-2.4069,-2.4061,-2.4054,-2.4038,-2.403,-2.4018,-2.4021,-2.4008,-2.4,-2.3995,-2.3979,-2.3971,-2.3958,-2.3941,-2.3932,-2.3933,-2.3908,-2.3914,-2.3913,-2.3912,-2.3903,-2.3902,-2.39,-2.3919,-2.3919,-2.3919,0,0,-2.4055,-2.4048,-2.4036,-2.4028,-2.4017,-2.4011,-2.4009,-2.3996,-2.3991,-2.3975,-2.3972,-2.3962,-2.3939,-2.393,-2.3923,-2.3908,-2.3905,-2.3904,-2.3899,-2.3891,-2.3889,-2.3888,-2.3884,-2.3882,-2.3902,-2.3902,-2.3902,0,-2.405,-2.4034,-2.403,-2.4018,-2.4011,-2.4009,-2.3997,-2.3989,-2.3973,-2.3968,-2.397,-2.3944,-2.3934,-2.3916,-2.3912,-2.3906,-2.3903,-2.3905,-2.389,-2.3889,-2.3888,-2.3883,-2.3881,-2.3902,-2.3902,-2.3902,-2.3902,0,-2.4029,-2.4018,-2.401,-2.3997,-2.3989,-2.3978,-2.3971,-2.3963,-2.3961,-2.3955,-2.394,-2.3929,-2.3914,-2.391,-2.3906,-2.3891,-2.3892,-2.3892,-2.3895,-2.3886,-2.3882,-2.388,-2.3902,-2.3902,-2.3902,-2.3902,0,0,-2.4012,-2.3999,-2.3996,-2.3991,-2.3979,-2.397,-2.3958,-2.3946,-2.394,-2.393,-2.392,-2.3903,-2.3903,-2.3895,-2.389,-2.3883,-2.3873,-2.3884,-2.3884,-2.3883,-2.3857,-2.3857,-2.3855,-2.3872,-2.3872,-2.3871,-2.3858,0,-2.3997,-2.3977,-2.3974,-2.3957,-2.3947,-2.3946,-2.3936,-2.3927,-2.3922,-2.3912,-2.3906,-2.3894,-2.3896,-2.3891,-2.3884,-2.3876,-2.3868,-2.3877,-2.3862,-2.3862,-2.3866,-2.3853,-2.3852,-2.3841,-2.3857,-2.3856,-2.3856,0,-2.3976,-2.3967,-2.395,-2.3941,-2.3937,-2.3928,-2.3918,-2.3909,-2.3899,-2.3896,-2.3888,-2.3885,-2.3873,-2.3877,-2.386,-2.3867,-2.3861,-2.3856,-2.3856,-2.3854,-2.3858,-2.3851,-2.3837,-2.3835,-2.3853,-2.3853,-2.3854,0,-2.3966,-2.395,-2.3938,-2.3933,-2.3923,-2.3917,-2.3912,-2.3903,-2.3897,-2.3887,-2.3883,-2.3872,-2.3865,-2.3857,-2.3851,-2.3854,-2.3835,-2.3838,-2.3832,-2.3832,-2.3827,-2.3827,-2.3812,-2.3823,-2.3824,-2.3824,-2.3824,0,-2.3949,-2.3938,-2.3933,-2.3926,-2.3914,-2.3911,-2.3899,-2.3894,-2.3887,-2.3878,-2.3875,-2.3867,-2.386,-2.3851,-2.3846,-2.3834,-2.383,-2.3827,-2.3826,-2.3828,-2.3828,-2.3823,-2.3824,-2.3823,-2.3823,-2.3823,-2.3823,0,-2.3935,-2.3932,-2.3918,-2.3911,-2.3908,-2.39,-2.3893,-2.3886,-2.3881,-2.387,-2.3868,-2.386,-2.385,-2.3843,-2.3829,-2.3826,-2.3812,-2.3811,-2.3816,-2.3815,-2.381,-2.381,-2.379,-2.3788,-2.3801,-2.3801,-2.3801,0,-2.3925,-2.3917,-2.3909,-2.3904,-2.39,-2.3891,-2.3885,-2.3881,-2.3875,-2.3866,-2.3859,-2.3849,-2.384,-2.3823,-2.3816,-2.3806,-2.3804,-2.3798,-2.3803,-2.3805,-2.3805,-2.3805,-2.3805,-2.3797,-2.3797,-2.3797,-2.3797,0,-2.3907,-2.3906,-2.3898,-2.3891,-2.3884,-2.3877,-2.387,-2.3866,-2.3861,-2.3855,-2.3845,-2.3838,-2.3825,-2.3815,-2.3804,-2.3799,-2.3797,-2.3796,-2.3794,-2.3795,-2.3798,-2.3797,-2.3814,-2.3796,-2.3796,-2.3796,-2.3796,-2.3796,-2.3895,-2.3888,-2.3882,-2.3874,-2.3869,-2.3864,-2.3857,-2.3853,-2.3845,-2.3835,-2.3833,-2.3823,-2.3815,-2.3801,-2.3795,-2.3787,-2.3788,-2.3785,-2.3784,-2.3783,-2.3783,-2.38,-2.3785,-2.3785,-2.3785,-2.3785,-2.3785,0,-2.3877,-2.3874,-2.3867,-2.3858,-2.3852,-2.3853,-2.3846,-2.3841,-2.3832,-2.3826,-2.3818,-2.3807,-2.3798,-2.3791,-2.3782,-2.3776,-2.3775,-2.3774,-2.3774,-2.3773,-2.3783,-2.3786,-2.3775,-2.3775,-2.3775,-2.3775,-2.3775,-2.3775,-2.3867,-2.3857,-2.3856,-2.3843,-2.384,-2.3831,-2.3827,-2.3822,-2.3817,-2.3805,-2.3798,-2.3795,-2.3788,-2.3778,-2.377,-2.3768,-2.3765,-2.3763,-2.3762,-2.3771,-2.3772,-2.3773,-2.3776,-2.3763,-2.3763,-2.3752,-2.3752,-2.3752]}]]